Burnet, TX

1:59 PM CDT on June 28, 2017 (GMT -0500)
Burnet Municipal-Craddock

Weather History for KBMQ - October, 2011

Change the Weather History Date:

Tuesday, October 4, 2011

  Actual Average Record
Temperature  
Mean Temperature 70 °F -  
Max Temperature 84 °F 79 °F 91 °F (1998)
Min Temperature 55 °F 59 °F 51 °F (2010)
Cooling Degree Days 4    
Growing Degree Days 20 (Base 50)    
Moisture  
Dew Point 44 °F    
Average Humidity 41    
Maximum Humidity 72    
Minimum Humidity 14    
Precipitation  
Precipitation 0.00 in - - ()
Sea Level Pressure  
Sea Level Pressure 30.14 in    
Wind  
Wind Speed 3 mph (SSE)    
Max Wind Speed 10 mph    
Max Gust Speed 18 mph    
Visibility 10 miles    
Events      
Averages and records for this station are not official NWS values.
T = Trace of Precipitation, MM = Missing Value Source: NWS Daily Summary

Daily Weather History Graph

Daily Weather History Graph

Search for Another Location

Airport or City:

Trip Planner

Search our weather history database for the weather conditions in past years. The results will help you decide how hot, cold, wet, or windy it might be!

Date:

Astronomy

Oct. 04, 2011 Rise Set
Actual Time 7:28 AM CDT 7:14 PM CDT
Civil Twilight 7:04 AM CDT 7:38 PM CDT
Nautical Twilight 6:36 AM CDT 8:06 PM CDT
Astronomical Twilight 6:08 AM CDT 8:34 PM CDT
Moon 2:52 PM CDT (10/4) 12:40 AM CDT (10/4)
Length of Visible Light 12h 34m
Length of Day
11h 46m
First Quarter, 56% of the Moon is Illuminated
Oct 4
First Quarter
Oct 11
Full
Oct 19
Last Quarter
Oct 26
New
Nov 2
First Quarter

Hourly Weather History & Observations

Time (CDT) Temp. Dew Point Humidity Pressure Visibility Wind Dir Wind Speed Gust Speed Precip Events Conditions
12:53 AM 64.9 °F 42.1 °F 43% 30.16 in 10.0 mi Calm Calm - N/A   Clear
1:53 AM 66.0 °F 46.0 °F 48% 30.16 in 10.0 mi South 4.6 mph - N/A   Clear
2:53 AM 63.0 °F 46.9 °F 56% 30.16 in 10.0 mi Calm Calm - N/A   Clear
3:53 AM 62.1 °F 46.9 °F 58% 30.15 in 10.0 mi Calm Calm - N/A   Clear
4:53 AM 60.1 °F 48.0 °F 64% 30.15 in 10.0 mi Calm Calm - N/A   Clear
5:53 AM 57.9 °F 48.0 °F 70% 30.16 in 10.0 mi Calm Calm - N/A   Clear
6:53 AM 55.0 °F 46.0 °F 72% 30.18 in 10.0 mi Calm Calm - N/A   Clear
7:53 AM 55.9 °F 46.9 °F 72% 30.20 in 10.0 mi NNE 3.5 mph - N/A   Clear
8:53 AM 66.0 °F 50.0 °F 56% 30.22 in 10.0 mi Calm Calm - N/A   Clear
9:53 AM 71.1 °F 48.0 °F 44% 30.23 in 10.0 mi South 5.8 mph - N/A   Clear
10:53 AM 73.9 °F 45.0 °F 35% 30.23 in 10.0 mi Variable 6.9 mph - N/A   Clear
11:53 AM 78.1 °F 41.0 °F 27% 30.21 in 10.0 mi SE 8.1 mph 16.1 mph N/A   Clear
12:53 PM 81.0 °F 39.9 °F 23% 30.19 in 10.0 mi Variable 4.6 mph - N/A   Clear
1:53 PM 82.0 °F 37.0 °F 20% 30.15 in 10.0 mi SE 6.9 mph - N/A   Clear
2:53 PM 84.0 °F 30.0 °F 14% 30.12 in 10.0 mi South 10.4 mph 18.4 mph N/A   Clear
3:53 PM 84.0 °F 39.9 °F 21% 30.10 in 10.0 mi South 9.2 mph 17.3 mph N/A   Clear
4:53 PM 84.0 °F 41.0 °F 22% 30.08 in 10.0 mi SSE 10.4 mph 16.1 mph N/A   Clear
5:53 PM 82.9 °F 39.9 °F 22% 30.08 in 10.0 mi SSE 6.9 mph 17.3 mph N/A   Clear
6:53 PM 81.0 °F 44.1 °F 27% 30.08 in 10.0 mi SSE 4.6 mph - N/A   Clear
7:53 PM 78.1 °F 45.0 °F 31% 30.09 in 10.0 mi SE 4.6 mph - N/A   Clear
8:53 PM 75.9 °F 46.0 °F 35% 30.09 in 10.0 mi SE 4.6 mph - N/A   Clear
9:53 PM 73.0 °F 46.0 °F 38% 30.09 in 10.0 mi Calm Calm - N/A   Clear
10:53 PM 72.0 °F 46.9 °F 41% 30.10 in 10.0 mi ESE 4.6 mph - N/A   Clear
11:53 PM 73.0 °F 50.0 °F 44% 30.10 in 10.0 mi SSE 6.9 mph - N/A   Clear